FLOCK 4Y-19 (55026 NORAD) Tracking and Keplerian Element Data

This shows tracking and keplerian element data for the satellite.

Feedback or suggestion? Click here.




ElementValue
Catalog55026
NameFLOCK 4Y-19
Epoch Orbit1242
Epoch Day84.71628618
Epoch Year2023
RAAN145.5112
Inclination97.4859
Eccentricity0.0010194
Argument of Perigee293.692
Mean Anonmoly66.3242
Mean Motion15.15653468
Decay Rate0.00039529
L11 55026U 23001T 23084.71628618 .00039529 00000+0 20698-2 0 9994
L22 55026 97.4859 145.5112 0010194 293.6920 66.3242 15.15653468 12423



Live tracking and technical data element details for FLOCK 4Y-19 (NORAD 55026). FLOCK 4Y-19 can be tracked NOW for your location showing map with azimuth and elevation plus other details from your city location.







IsCatalogInMostPopularTable: catalog: 55026, numindb: 7
Update: records affected: 1



GetName: 55026 FLOCK 4Y-19

Hit Count: updated at: Mon, 27 Mar 2023 07:09:48 GMT